Home > Weather > Sindelfingen > Past weeks

Flag for Germany Past Weather in Sindelfingen, Baden-Württemberg, Germany — Yesterday and Last 2 Weeks

Now
61 °F

Passing clouds.


Feels Like: 61 °F
Forecast: 57 / 72 °F
Wind: 1 mph from North

Location: Stuttgart-Echterdingen

Current Time: Jul 30, 2016 at 5:30:44 AM

Latest Report: Jul 30, 2016 at 4:50 AM


Visibility: N/A

Pressure: 29.98 "Hg

Humidity: 94%

Dew Point: 59 °F

Location of SindelfingenLocation

Past Weather in Sindelfingen — Graph

°F

Sindelfingen Temperature Yesterday

Maximum temperature yesterday: 79 °F (at 3:50 PM)
Minimum temperature yesterday: 63 °F (at 3:50 AM)
Average temperature yesterday: 71 °F

High & Low Weather Summary for the Past Weeks

 TemperatureHumidityPressure
High91 °F (Jul 20, 4:20 PM)100% (Jul 18, 6:20 AM)30.33 "Hg (Jul 18, 6:20 AM)
Low48 °F (Jul 15, 5:50 AM)28% (Jul 20, 4:50 PM)29.92 "Hg (Jul 21, 3:50 AM)
Average70 °F71%30.11 "Hg
* Reported Jul 15 4:20 AM — Jul 30 4:20 AM, Sindelfingen, Weather by CustomWeather, © 2016

Note: Actual official high and low records may vary slightly from our data, if they occured in-between our weather recording intervals... More about our weather records

Advertising

Sindelfingen Weather History for the Previous 24 Hours

Scroll right to see more
 ConditionsComfort  
Time TempWeatherWind HumidityBarometerVisibility
4:20 AM
Sat, Jul 30
63 °FPassing clouds.No wind88%29.98 "HgN/A
3:50 AM63 °FPassing clouds.2 mph88%30.01 "HgN/A
3:20 AM63 °FPassing clouds.2 mph88%30.01 "HgN/A
2:50 AM64 °FPassing clouds.2 mph83%30.01 "HgN/A
2:20 AM64 °FPassing clouds.3 mph88%30.01 "HgN/A
1:50 AM66 °FPassing clouds.3 mph83%30.01 "HgN/A
1:20 AM68 °FPassing clouds.2 mph78%30.01 "HgN/A
12:50 AM68 °FPassing clouds.2 mph78%30.01 "HgN/A
12:20 AM68 °FPassing clouds.2 mph78%30.01 "HgN/A
11:50 PM
Fri, Jul 29
70 °FClear.2 mph73%30.01 "Hg10 mi
11:20 PM70 °FClear.3 mph73%30.01 "Hg10 mi
10:50 PM70 °FClear.6 mph73%30.01 "Hg10 mi
10:20 PM72 °FClear.6 mph65%29.98 "Hg10 mi
9:50 PM72 °FSunny.5 mph65%29.98 "Hg10 mi
9:20 PM73 °FSunny.7 mph61%29.98 "Hg10 mi
8:50 PM75 °FSunny.10 mph57%29.98 "Hg10 mi
8:20 PM75 °FSunny.10 mph54%29.98 "Hg10 mi
7:50 PM77 °FPassing clouds.9 mph51%29.98 "HgN/A
7:20 PM77 °FSunny.10 mph54%29.95 "Hg10 mi
6:50 PM77 °FSunny.8 mph51%29.95 "Hg10 mi
6:20 PM79 °FSunny.10 mph51%29.98 "Hg10 mi
5:50 PM79 °FPassing clouds.10 mph51%29.98 "HgN/A
5:20 PM77 °FScattered clouds.8 mph51%29.98 "HgN/A
4:50 PM79 °FScattered clouds.8 mph51%29.98 "HgN/A
4:20 PM79 °FScattered clouds.10 mph48%29.98 "HgN/A
3:50 PM79 °FScattered clouds.12 mph48%29.98 "HgN/A
3:20 PM77 °FScattered clouds.7 mph51%29.98 "HgN/A
2:50 PM77 °FScattered clouds.8 mph51%30.01 "HgN/A
2:20 PM77 °FScattered clouds.8 mph54%30.01 "HgN/A
1:50 PM77 °FScattered clouds.8 mph54%30.01 "HgN/A
1:20 PM75 °FScattered clouds.9 mph57%30.01 "HgN/A
12:50 PM75 °FBroken clouds.8 mph54%30.01 "HgN/A
12:20 PM73 °FBroken clouds.10 mph57%30.01 "HgN/A
11:50 AM73 °FBroken clouds.8 mph57%30.01 "HgN/A
11:20 AM75 °FScattered clouds.7 mph61%30.04 "HgN/A
10:50 AM72 °FScattered clouds.7 mph69%30.04 "HgN/A
10:20 AM70 °FScattered clouds.8 mph73%30.04 "HgN/A
9:50 AM70 °FScattered clouds.6 mph73%30.04 "HgN/A
9:20 AM68 °FScattered clouds.5 mph78%30.04 "HgN/A
8:50 AM66 °FScattered clouds.5 mph83%30.04 "HgN/A
8:20 AM66 °FPartly sunny.5 mph83%30.04 "HgN/A
7:50 AM64 °FScattered clouds.3 mph88%30.04 "HgN/A
7:20 AM63 °FPartly sunny.3 mph94%30.04 "HgN/A
6:50 AM63 °FPartly cloudy.3 mph94%30.04 "HgN/A
6:20 AM63 °FPartly cloudy.5 mph94%30.04 "HgN/A
5:50 AM63 °FPassing clouds.3 mph94%30.04 "HgN/A
5:20 AM63 °FPassing clouds.3 mph94%30.04 "HgN/A
Weather by CustomWeather, © 2016

See weather overviewHow to use our weather pages